TimeCDT,TemperatureF,Dew PointF,Humidity,Sea Level PressureIn,VisibilityMPH,Wind Direction,Wind SpeedMPH,Gust SpeedMPH,PrecipitationIn,Events,Conditions,WindDirDegrees,DateUTC
12:52 AM,68.0,36.0,31,30.10,10.0,SSE,11.5,-,N/A,,Clear,160,2011-10-03 05:52:00
1:52 AM,66.9,34.0,30,30.09,10.0,SSE,11.5,-,N/A,,Clear,150,2011-10-03 06:52:00
2:52 AM,66.0,34.0,30,30.08,10.0,SSE,9.2,-,N/A,,Clear,150,2011-10-03 07:52:00
3:52 AM,63.0,35.1,35,30.08,10.0,SE,9.2,-,N/A,,Clear,140,2011-10-03 08:52:00
4:52 AM,62.1,36.0,38,30.08,10.0,Variable,6.9,-,N/A,,Clear,0,2011-10-03 09:52:00
5:52 AM,62.1,37.9,41,30.09,10.0,SSE,6.9,-,N/A,,Clear,150,2011-10-03 10:52:00
6:52 AM,61.0,37.9,42,30.11,10.0,SE,8.1,-,N/A,,Clear,140,2011-10-03 11:52:00
7:52 AM,60.1,39.0,46,30.13,10.0,SE,6.9,-,N/A,,Clear,140,2011-10-03 12:52:00
8:52 AM,66.0,43.0,43,30.14,10.0,Calm,Calm,-,N/A,,Clear,0,2011-10-03 13:52:00
9:52 AM,73.0,45.0,37,30.16,10.0,SSW,13.8,-,N/A,,Clear,200,2011-10-03 14:52:00
10:52 AM,75.9,46.9,36,30.17,10.0,SSW,13.8,-,N/A,,Clear,210,2011-10-03 15:52:00
11:52 AM,79.0,48.0,34,30.16,10.0,SSW,11.5,-,N/A,,Clear,200,2011-10-03 16:52:00
12:52 PM,82.9,46.9,28,30.14,10.0,SE,6.9,-,N/A,,Clear,130,2011-10-03 17:52:00
1:52 PM,84.9,44.1,24,30.12,10.0,South,4.6,21.9,N/A,,Clear,190,2011-10-03 18:52:00
2:52 PM,87.1,43.0,21,30.08,10.0,SE,15.0,18.4,N/A,,Clear,140,2011-10-03 19:52:00
3:52 PM,87.1,39.9,19,30.07,10.0,Variable,5.8,21.9,N/A,,Clear,0,2011-10-03 20:52:00
4:52 PM,87.1,37.0,17,30.06,10.0,SE,11.5,-,N/A,,Clear,130,2011-10-03 21:52:00
5:52 PM,86.0,41.0,20,30.06,10.0,South,10.4,-,N/A,,Clear,170,2011-10-03 22:52:00
6:52 PM,82.9,39.0,21,30.06,10.0,SE,11.5,-,N/A,,Clear,140,2011-10-03 23:52:00
7:52 PM,77.0,39.0,25,30.08,10.0,SE,9.2,-,N/A,,Clear,130,2011-10-04 00:52:00
8:52 PM,73.0,39.0,29,30.10,10.0,SE,10.4,-,N/A,,Clear,130,2011-10-04 01:52:00
9:52 PM,69.1,39.0,33,30.11,10.0,SSE,5.8,-,N/A,,Clear,150,2011-10-04 02:52:00
10:52 PM,68.0,39.0,35,30.12,10.0,SE,6.9,-,N/A,,Clear,140,2011-10-04 03:52:00
11:52 PM,69.1,39.9,35,30.11,10.0,SSE,9.2,-,N/A,,Clear,160,2011-10-04 04:52:00